Weather Roundup
Issued by NWS Springfield, MO

Home | Current Version | Previous Version | Text Only | Print | Product List | Glossary On
Versions: 1 2 3 4 5 6 7 8 9 10 11 12 13 14 15 16 17 18 19 20 21 22 23 24 25 26 27 28 29 30 31 32 33 34 35 36 37 38 39 40 41 42 43 44 45 46 47 48 49 50
000
NZUS99 KSGF 302307
HRRSGF

HOURLY WEATHER
NATIONAL WEATHER SERVICE SPRINGFIELD MO
600 PM CDT SAT APR 30 2016

......SGF CWA......

CITY           SKY/WX    TMP DP  RH WIND       PRES   REMARKS
SPRINGFIELD    PTSUNNY   72  57  59 W10       29.75S
JOPLIN         SUNNY     67  52  58 W13       29.77R
WEST PLAINS    PTSUNNY   74  59  59 SE6       29.76S
ROLLA          PTSUNNY   73  62  68 W6        29.72F
OSAGE BEACH    SUNNY     75  52  43 SW12      29.74S
BRANSON        MOSUNNY   72  61  68 NW10      29.76S

......SURROUNDING SGF CWA......

CITY           SKY/WX    TMP DP  RH WIND       PRES   REMARKS
CHANUTE        SUNNY     66  48  52 W12       29.77S
PARSONS        SUNNY     67  51  56 NW10      29.79R
COFFEYVILLE    SUNNY     68  49  50 W10G21    29.78R
EMPORIA        MOSUNNY   62  45  53 W12G18    29.78R
GROVE OK       SUNNY     68  55  64 W7        29.79R
ROGERS AR      CLOUDY    66  59  78 W6        29.80R
SILOAM SPRINGS PTSUNNY   66  54  63 NW3       29.80R
HARRISON AR    MOSUNNY   73  62  68 NW7       29.75R
NEAR YELLVILLE PTSUNNY  N/A N/A N/A N13       29.72S THUNDER

......KANSAS AND MISSOURI......

CITY           SKY/WX    TMP DP  RH WIND       PRES   REMARKS
KANSAS CTY INT CLOUDY    65  50  58 W9        29.75R
DOWNTOWN KC    MOSUNNY   68  47  46 W13G22    29.74R
COLUMBIA       SUNNY     73  56  54 W12       29.74R
SEDALIA        MOSUNNY   71  55  56 W8        29.76R
ST JOSEPH      MOSUNNY   64  47  53 W13       29.76R
ST LOUIS       PTSUNNY   75  61  61 SE9       29.74S
SPIRIT OF STL  MOSUNNY   73  63  70 SE3       29.72R
KIRKSVILLE     MOSUNNY   66  57  72 N10       29.75R
WICHITA        MOSUNNY   61  42  49 W20       29.81R
TOPEKA         PTSUNNY   65  47  52 W12       29.75R
OLATHE         SUNNY     64  47  53 W8        29.75R

......TENNESSEE......

CITY           SKY/WX    TMP DP  RH WIND       PRES   REMARKS
MEMPHIS        MOSUNNY   76  63  64 SW6       29.80R
NASHVILLE      LGT RAIN  70  66  87 SE7       29.88S

......ARKANSAS.......

CITY           SKY/WX    TMP DP  RH WIND       PRES   REMARKS
FAYETTEVILLE   CLOUDY    66  62  87 W7        29.78S
FT SMITH       MOSUNNY   71  60  68 W9        29.75R
LITTLE ROCK    PTSUNNY   79  63  57 S10       29.75S

......OKLAHOMA.......

CITY           SKY/WX    TMP DP  RH WIND       PRES   REMARKS
TULSA          SUNNY     70  53  54 NW8       29.76R
PONCA CITY     SUNNY     65  44  46 W8G17     29.80R
MCALESTER      MOSUNNY   70  61  73 SE5       29.77R
OKLAHOMA CITY  MOSUNNY   70  45  40 NW15      29.78S

......IOWA............

CITY           SKY/WX    TMP DP  RH WIND       PRES   REMARKS
DES MOINES     DRIZZLE   50  47  89 E16       29.82R FOG
QUAD CITIES    CLOUDY    48  45  89 NE13      29.86R FOG

......ILLINOIS........

CITY           SKY/WX    TMP DP  RH WIND       PRES   REMARKS
QUINCY         LGT RAIN  67  63  87 E8        29.73R
CHICAGO        HVY RAIN  45  43  93 NE20G30   29.92R FOG




USA.gov is the U.S. government's official web portal to all federal, state and local government web resources and services.